Time_in_sec,Latitude,Longitude,Altitude,Nbsat_max_qualitysignal,Nbsat_locked,valid_data
1314889082.55543113,46.54707336,8.71080208,1978.32971191,5,6,1
1314889222.50717640,46.54708099,8.71082497,1978.20251465,5,7,1
1314889222.55633378,46.54708481,8.71082592,1978.21435547,5,7,1
1314889222.60830450,46.54708481,8.71082497,1978.20251465,5,7,1
1314889222.65538406,46.54708481,8.71082497,1978.19079590,5,7,1
1314889222.71131039,46.54708481,8.71082497,1978.17895508,5,7,1
1314889222.75631571,46.54708481,8.71082497,1978.16711426,5,7,1
1314889222.80730557,46.54708481,8.71082497,1978.18701172,5,7,1
1314889222.85524249,46.54708481,8.71082497,1978.17529297,5,7,1
1314889222.90732217,46.54708481,8.71082497,1978.16345215,5,7,1
1314889222.95532227,46.54708481,8.71082497,1978.15161133,5,7,1
1314889223.00722575,46.54708481,8.71082497,1978.13977051,5,7,1
1314889223.05530310,46.54708481,8.71082592,1978.15686035,5,7,1
1314889223.10719442,46.54708481,8.71082592,1978.14514160,5,7,1
1314889223.15608811,46.54708481,8.71082592,1978.13330078,5,7,1
1314889223.20820475,46.54708481,8.71082592,1978.12145996,5,7,1
1314889223.25611281,46.54708481,8.71082592,1978.10961914,5,7,1
1314889223.30718160,46.54708481,8.71082592,1978.12927246,5,7,1
1314889223.35519695,46.54708481,8.71082592,1978.11743164,5,7,1
1314889223.40820408,46.54708481,8.71082592,1978.10559082,5,7,1
1314889223.45621514,46.54708481,8.71082592,1978.09375000,5,7,1
1314889223.50823259,46.54708481,8.71082592,1978.08178711,5,7,1
1314889223.55624580,46.54708481,8.71082592,1978.10034180,5,7,1
1314889223.60821795,46.54708481,8.71082592,1978.08850098,5,7,1
1314889223.65530372,46.54708481,8.71082592,1978.07653809,5,7,1
1314889223.70823693,46.54708481,8.71082592,1978.06457520,5,7,1
1314889223.75607538,46.54708481,8.71082592,1978.05261230,5,7,1
1314889223.80721211,46.54708481,8.71082592,1978.08105469,5,7,1
1314889223.85594130,46.54708481,8.71082592,1978.06921387,5,7,1
1314889223.90754867,46.54708481,8.71082592,1978.05737305,5,7,1
1314889223.95580125,46.54708481,8.71082592,1978.04541016,5,7,1
1314889224.00715995,46.54708481,8.71082497,1978.03356934,5,7,1
1314889224.05580592,46.54708481,8.71082497,1978.06372070,5,7,1
1314889224.10781598,46.54708481,8.71082497,1978.05187988,5,7,1
1314889224.15623379,46.54708481,8.71082497,1978.04003906,5,7,1
1314889224.20719624,46.54708481,8.71082497,1978.02819824,5,7,1
1314889224.25583625,46.54708481,8.71082497,1978.01623535,5,7,1
1314889224.30716681,46.54708481,8.71082497,1978.05029297,5,7,1
1314889224.35530853,46.54708481,8.71082497,1978.03857422,5,7,1
1314889224.40723491,46.54708481,8.71082497,1978.02673340,5,7,1
1314889224.45590806,46.54708481,8.71082497,1978.01489258,5,7,1
1314889224.50803185,46.54708481,8.71082497,1978.00292969,5,7,1
1314889224.55632520,46.54708481,8.71082497,1978.03649902,5,7,1
1314889224.60990262,46.54708481,8.71082497,1978.02465820,5,7,1
1314889224.65529919,46.54708481,8.71082497,1978.01281738,5,7,1
1314889224.70727801,46.54708481,8.71082497,1978.00097656,5,7,1
1314889224.75634527,46.54708481,8.71082497,1977.98901367,5,7,1
1314889224.80722260,46.54708481,8.71082497,1978.02197266,5,7,1
1314889224.85631561,46.54708481,8.71082497,1978.01025391,5,7,1
1314889224.90720367,46.54708481,8.71082497,1977.99841309,5,7,1
1314889224.96032810,46.54708481,8.71082497,1977.98657227,5,7,1
1314889225.00790143,46.54708481,8.71082497,1977.97473145,5,7,1
1314889225.05556965,46.54708481,8.71082497,1978.00732422,5,7,1
1314889225.10719299,46.54708481,8.71082497,1977.99548340,5,7,1
1314889225.15669966,46.54708481,8.71082401,1977.98376465,5,7,1
1314889225.20820308,46.54708481,8.71082401,1977.97192383,5,7,1
1314889225.25544930,46.54708481,8.71082401,1977.95996094,5,7,1
1314889225.30822420,46.54708481,8.71082401,1977.99645996,5,7,1
1314889225.35552716,46.54708481,8.71082401,1977.98474121,5,7,1
1314889225.40826082,46.54708481,8.71082401,1977.97302246,5,7,1
1314889225.45574546,46.54708481,8.71082401,1977.96130371,5,7,1
1314889225.50719523,46.54708099,8.71082401,1977.94946289,5,7,1
1314889225.56034613,46.54708481,8.71082401,1977.98547363,5,7,1
1314889225.60831547,46.54708099,8.71082401,1977.97375488,5,7,1
1314889225.65530086,46.54708099,8.71082401,1977.96215820,5,7,1
1314889225.70721126,46.54708099,8.71082401,1977.95043945,5,7,1
1314889225.75530434,46.54708099,8.71082401,1977.93872070,5,7,1
1314889225.80974793,46.54708099,8.71082306,1977.97766113,5,7,1
1314889225.85531616,46.54708099,8.71082306,1977.96606445,5,7,1
1314889225.90808392,46.54708099,8.71082306,1977.95446777,5,7,1
1314889225.95531106,46.54708099,8.71082306,1977.94274902,5,7,1
1314889226.00720072,46.54708099,8.71082306,1977.93115234,5,7,1
1314889226.05525827,46.54708099,8.71082306,1977.96508789,5,7,1
1314889226.10817075,46.54708099,8.71082306,1977.95349121,5,7,1
1314889226.15524364,46.54708099,8.71082306,1977.94189453,5,7,1
1314889226.20816970,46.54708099,8.71082306,1977.93029785,5,7,1
1314889226.25613856,46.54708099,8.71082306,1977.91857910,5,7,1
1314889226.30817080,46.54708099,8.71082306,1977.96069336,5,7,1
1314889226.35624790,46.54708099,8.71082306,1977.94921875,5,7,1
1314889226.40693569,46.54708099,8.71082211,1977.93774414,5,7,1
1314889226.45613003,46.54708099,8.71082211,1977.92626953,5,7,1
1314889226.50823212,46.54708099,8.71082211,1977.91467285,6,7,1
1314889226.55613375,46.54708099,8.71082306,1977.95642090,6,7,1
1314889226.60835385,46.54708099,8.71082306,1977.94494629,6,7,1
1314889226.65601921,46.54708099,8.71082306,1977.93359375,6,7,1
1314889226.70719600,46.54708099,8.71082211,1977.92199707,6,7,1
1314889226.75520706,46.54708099,8.71082211,1977.91052246,6,7,1
1314889226.80821967,46.54708099,8.71082306,1977.95593262,6,7,1
1314889226.85533166,46.54708099,8.71082211,1977.94458008,6,7,1
1314889226.90823221,46.54708099,8.71082211,1977.93322754,6,7,1
1314889226.95545316,46.54708099,8.71082211,1977.92187500,6,7,1
1314889227.00792480,46.54708099,8.71082211,1977.91040039,6,7,1
1314889227.05624175,46.54708099,8.71082211,1977.95446777,6,7,1
1314889227.10823202,46.54708099,8.71082211,1977.94323730,6,7,1
1314889227.15583873,46.54708099,8.71082211,1977.93188477,6,7,1
1314889227.20824218,46.54708099,8.71082211,1977.92053223,6,7,1
1314889227.25531149,46.54708099,8.71082211,1977.90917969,6,7,1
1314889227.30720854,46.54708099,8.71082115,1977.94677734,6,7,1
1314889227.35682726,46.54708099,8.71082115,1977.93542480,6,7,1
1314889227.40822840,46.54708099,8.71082115,1977.92407227,6,7,1
1314889227.45630074,46.54708099,8.71082115,1977.91271973,6,7,1
1314889227.50822639,46.54708099,8.71082115,1977.90124512,6,7,1
1314889227.55539560,46.54708099,8.71082115,1977.94689941,6,7,1
1314889227.60833693,46.54708099,8.71082115,1977.93566895,6,7,1
1314889227.65631843,46.54708099,8.71082115,1977.92443848,6,7,1
1314889227.70778871,46.54708099,8.71082115,1977.91308594,6,7,1
1314889227.75632930,46.54708099,8.71082115,1977.90173340,6,7,1
1314889227.80825162,46.54708099,8.71082020,1977.95068359,6,7,1
1314889227.85570860,46.54708099,8.71082020,1977.93957520,6,7,1
1314889227.90781546,46.54708099,8.71082020,1977.92834473,6,7,1
1314889227.95931959,46.54708099,8.71082020,1977.91711426,6,7,1
1314889228.00720906,46.54708099,8.71082020,1977.90588379,6,7,1
1314889228.06020904,46.54708099,8.71082020,1977.94824219,6,7,1
1314889228.10820127,46.54708099,8.71082020,1977.93713379,6,7,1
1314889228.15934062,46.54708099,8.71082020,1977.92602539,6,7,1
1314889228.20777631,46.54708099,8.71082020,1977.91479492,6,7,1
1314889228.25555897,46.54708099,8.71082020,1977.90356445,6,7,1
1314889228.30721116,46.54708099,8.71082020,1977.94555664,6,7,1
1314889228.36035442,46.54708099,8.71082020,1977.93444824,6,7,1
1314889228.40822506,46.54708099,8.71082020,1977.92333984,6,7,1
1314889228.45534253,46.54708099,8.71082020,1977.91210938,6,7,1
1314889228.50719738,46.54708099,8.71082020,1977.90087891,6,7,1
1314889228.55532646,46.54708099,8.71082020,1977.93786621,6,7,1
1314889228.60734749,46.54708099,8.71082020,1977.92675781,6,7,1
1314889228.65933037,46.54708099,8.71082020,1977.91564941,6,7,1
1314889228.70738506,46.54708099,8.71082020,1977.90454102,6,7,1
1314889228.75530505,46.54708099,8.71081924,1977.89343262,6,7,1
1314889228.80822206,46.54708099,8.71082020,1977.93432617,6,7,1
1314889228.85618353,46.54708099,8.71082020,1977.92333984,6,7,1
1314889228.90821004,46.54708099,8.71082020,1977.91223145,6,7,1
1314889228.95613885,46.54708099,8.71082020,1977.90124512,6,7,1
1314889229.00870037,46.54708099,8.71081924,1977.89013672,6,7,1
1314889229.05528975,46.54708099,8.71082020,1977.93200684,6,7,1
1314889229.10818124,46.54708099,8.71081924,1977.92102051,6,7,1
1314889229.15617180,46.54708099,8.71081924,1977.91003418,6,7,1
1314889229.20686340,46.54708099,8.71081924,1977.89892578,6,7,1
1314889229.25628018,46.54708099,8.71081924,1977.88781738,6,7,1
1314889229.30721807,46.54708099,8.71082020,1977.93225098,6,7,1
1314889229.35935235,46.54708099,8.71081924,1977.92126465,6,7,1
1314889229.40739226,46.54708099,8.71081924,1977.91027832,6,7,1
1314889229.45930791,46.54708099,8.71081924,1977.89929199,6,7,1
1314889229.51134300,46.54708099,8.71081924,1977.88818359,6,7,1
1314889229.55931211,46.54708099,8.71082020,1977.92980957,6,7,1
1314889229.60829926,46.54708099,8.71082020,1977.91894531,6,7,1
1314889229.65624356,46.54708099,8.71082020,1977.90795898,6,7,1
1314889229.70827579,46.54708099,8.71082020,1977.89697266,6,7,1
1314889229.75931334,46.54708099,8.71082020,1977.88598633,6,7,1
1314889229.80822611,46.54708099,8.71082020,1977.92858887,6,7,1
1314889229.85931158,46.54708099,8.71082020,1977.92297363,6,7,1
1314889229.90826297,46.54708099,8.71082020,1977.91198730,6,7,1
1314889229.95931077,46.54707718,8.71082020,1977.90112305,6,7,1
1314889230.00926447,46.54707718,8.71081924,1977.89013672,6,7,1
1314889230.05623436,46.54708099,8.71081924,1977.94055176,6,7,1
1314889230.10827327,46.54708099,8.71081924,1977.92968750,6,7,1
1314889230.15527940,46.54707718,8.71081924,1977.91882324,6,7,1
1314889230.20823407,46.54707718,8.71081924,1977.90795898,6,7,1
1314889230.25930762,46.54707718,8.71081924,1977.89697266,6,7,1
1314889230.30828857,46.54708099,8.71081924,1977.94873047,6,7,1
1314889230.35534978,46.54708099,8.71081924,1977.93798828,6,7,1
1314889230.40824509,46.54707718,8.71081924,1977.92724609,6,7,1
1314889230.45624161,46.54707718,8.71081924,1977.91638184,6,7,1
1314889230.50821853,46.54707718,8.71081924,1977.90551758,6,7,1
1314889230.55534792,46.54708099,8.71081924,1977.96777344,6,7,1
1314889230.60832739,46.54708099,8.71081924,1977.95715332,6,7,1
1314889230.65633798,46.54707718,8.71081924,1977.94641113,6,7,1
1314889230.70825195,46.54707718,8.71081924,1977.93579102,6,7,1
1314889230.75534534,46.54707718,8.71081924,1977.92504883,6,7,1
1314889230.81120515,46.54708099,8.71082020,1977.98400879,6,7,1
1314889230.85633969,46.54708099,8.71082020,1977.97351074,6,7,1
1314889230.91126657,46.54708099,8.71082020,1977.96301270,6,7,1
1314889230.95633769,46.54707718,8.71082020,1977.95251465,6,7,1
1314889231.00885177,46.54707718,8.71082020,1977.94189453,6,7,1
1314889231.05634308,46.54707718,8.71081924,1978.00329590,6,7,1
1314889231.10824609,46.54707718,8.71081924,1977.99291992,6,7,1
1314889231.15634584,46.54707718,8.71081924,1977.98254395,6,7,1
1314889231.20881677,46.54707718,8.71081924,1977.97204590,6,7,1
1314889231.25623727,46.54707718,8.71081924,1977.96154785,6,7,1
1314889231.30821204,46.54707718,8.71081924,1978.02246094,6,7,1
1314889231.35558414,46.54707718,8.71081924,1978.01220703,6,7,1
1314889231.40820909,46.54707718,8.71081924,1978.00195312,6,7,1
1314889231.46033478,46.54707718,8.71081924,1977.99157715,6,7,1
1314889231.50721884,46.54707718,8.71081924,1977.98120117,6,7,1
1314889231.55531335,46.54707718,8.71081924,1978.03906250,6,7,1
1314889231.60806394,46.54707718,8.71081924,1978.02893066,6,7,1
1314889231.65532255,46.54707718,8.71081924,1978.01867676,6,7,1
1314889231.70821786,46.54707718,8.71081924,1978.00854492,6,7,1
1314889231.75632048,46.54707718,8.71081924,1977.99816895,6,7,1
1314889231.80778790,46.54708099,8.71081924,1978.04992676,6,7,1
1314889231.85638475,46.54707718,8.71081924,1978.03979492,6,7,1
1314889231.90800548,46.54707718,8.71081924,1978.02954102,6,7,1
1314889231.95521760,46.54707718,8.71081924,1978.01940918,6,7,1
1314889232.00825191,46.54707718,8.71081924,1978.00915527,6,7,1
1314889232.05630302,46.54708099,8.71081924,1978.06677246,6,7,1
1314889232.10727859,46.54707718,8.71081924,1978.05676270,6,7,1
1314889232.15519810,46.54707718,8.71081924,1978.04663086,6,7,1
1314889232.20830584,46.54707718,8.71081924,1978.03649902,6,7,1
1314889232.25618696,46.54707718,8.71081924,1978.02636719,6,7,1
1314889232.30969620,46.54707718,8.71081924,1978.08105469,6,7,1
1314889232.35530734,46.54707718,8.71081924,1978.07104492,6,7,1
1314889232.40951514,46.54707718,8.71081924,1978.06103516,6,7,1
1314889232.45718646,46.54707718,8.71081924,1978.05102539,6,7,1
1314889232.50815725,46.54707718,8.71081924,1978.04089355,6,7,1
1314889232.55617952,46.54707718,8.71081924,1978.08911133,6,7,1
1314889232.60742307,46.54707718,8.71081924,1978.07910156,6,7,1
1314889232.65530801,46.54707718,8.71081924,1978.06909180,6,7,1
1314889232.70725083,46.54707718,8.71081924,1978.05908203,6,7,1
1314889232.75525665,46.54707718,8.71081924,1978.04907227,6,7,1
1314889232.80819583,46.54708099,8.71081924,1978.09985352,6,7,1
1314889232.85625219,46.54707718,8.71081924,1978.08984375,6,7,1
1314889232.90865040,46.54707718,8.71081924,1978.07995605,6,7,1
1314889232.95519423,46.54707718,8.71081924,1978.06994629,6,7,1
1314889233.00790310,46.54707718,8.71081924,1978.05993652,6,7,1
1314889233.05539680,46.54707718,8.71081924,1978.11315918,6,7,1
1314889233.10819411,46.54707718,8.71081924,1978.10327148,6,7,1
1314889233.15590286,46.54707718,8.71081924,1978.09338379,6,7,1
1314889233.20722246,46.54707718,8.71081924,1978.08349609,6,7,1
1314889233.25531054,46.54707718,8.71081924,1978.07348633,6,7,1
1314889233.30732393,46.54708099,8.71081924,1978.12634277,6,7,1
1314889233.35632515,46.54708099,8.71081924,1978.11657715,6,7,1
1314889233.41125202,46.54708099,8.71081924,1978.10681152,6,7,1
1314889233.45576072,46.54708099,8.71081924,1978.09692383,6,7,1
1314889233.51124883,46.54708099,8.71081924,1978.08703613,6,7,1
1314889233.55633307,46.54708099,8.71081924,1978.13293457,6,7,1
1314889233.60803413,46.54708099,8.71081924,1978.12316895,6,7,1
1314889233.65623355,46.54708099,8.71081924,1978.11340332,6,7,1
1314889233.70721912,46.54708099,8.71081924,1978.10363770,6,7,1
1314889233.75532079,46.54708099,8.71081924,1978.09375000,6,7,1
1314889233.80840588,46.54708099,8.71082020,1978.14160156,6,7,1
1314889233.85633206,46.54708099,8.71082020,1978.13195801,6,7,1
1314889233.90755248,46.54708099,8.71082020,1978.12231445,6,7,1
1314889233.95962739,46.54708099,8.71082020,1978.11267090,6,7,1
1314889234.00829029,46.54708099,8.71082020,1978.10290527,6,7,1
1314889234.05934453,46.54708099,8.71082020,1978.14611816,6,7,1
1314889234.10771990,46.54708099,8.71082020,1978.13647461,6,7,1
1314889234.15548277,46.54708099,8.71082020,1978.12683105,6,7,1
1314889234.20823288,46.54708099,8.71082020,1978.11706543,6,7,1
1314889234.25933385,46.54708099,8.71082020,1978.10742188,6,7,1
1314889234.30786562,46.54708099,8.71082020,1978.15087891,6,7,1
1314889234.35544276,46.54708099,8.71082020,1978.14135742,6,7,1
1314889234.40720820,46.54708099,8.71082020,1978.13183594,6,7,1
1314889234.45540428,46.54708099,8.71082020,1978.12219238,6,7,1
1314889234.50821900,46.54708099,8.71082020,1978.11254883,6,7,1
1314889234.55634713,46.54708099,8.71082020,1978.15515137,6,7,1
1314889234.60802484,46.54708099,8.71082020,1978.14562988,6,7,1
1314889234.65534401,46.54708099,8.71082020,1978.13610840,6,7,1
1314889234.70822597,46.54708099,8.71082020,1978.12658691,6,7,1
1314889234.76035476,46.54708099,8.71082020,1978.11706543,6,7,1
1314889234.80719757,46.54708481,8.71082020,1978.15319824,6,7,1
1314889234.85631418,46.54708481,8.71082020,1978.14379883,6,7,1
1314889234.90721178,46.54708481,8.71082020,1978.13427734,6,7,1
1314889234.95531106,46.54708481,8.71082020,1978.12463379,6,7,1
1314889235.00719738,46.54708099,8.71082020,1978.11511230,6,7,1
1314889235.05531740,46.54708481,8.71082115,1978.15100098,6,7,1
1314889235.10792685,46.54708481,8.71082115,1978.14160156,6,7,1
1314889235.15620303,46.54708481,8.71082115,1978.13208008,6,7,1
1314889235.20720553,46.54708481,8.71082020,1978.12255859,6,7,1
1314889235.25523233,46.54708481,8.71082020,1978.11303711,6,7,1
1314889235.30820131,46.54708481,8.71082115,1978.14538574,6,7,1
1314889235.35620832,46.54708481,8.71082115,1978.13598633,6,7,1
1314889235.40821767,46.54708481,8.71082115,1978.12646484,6,7,1
1314889235.45924640,46.54708481,8.71082115,1978.11706543,6,7,1
1314889235.51131606,46.54708481,8.71082020,1978.10754395,6,7,1
1314889235.55606508,46.54708481,8.71082115,1978.13513184,6,7,1
1314889235.60801315,46.54708481,8.71082115,1978.12573242,6,7,1
1314889235.65531278,46.54708481,8.71082115,1978.11621094,6,7,1
1314889235.70821905,46.54708481,8.71082115,1978.10668945,6,7,1
1314889235.75624108,46.54708481,8.71082115,1978.09716797,6,7,1
1314889235.80514646,46.54708481,8.71082115,1978.12048340,6,7,1
1314889235.85624933,46.54708481,8.71082115,1978.11328125,6,7,1
1314889235.90724611,46.54708481,8.71082115,1978.10375977,6,7,1
1314889235.95591521,46.54708481,8.71082115,1978.09423828,6,7,1
1314889236.00785875,46.54708481,8.71082115,1978.08459473,6,7,1
1314889236.05591536,46.54708481,8.71082211,1978.10546875,6,7,1
1314889236.10786486,46.54708481,8.71082211,1978.09594727,6,7,1
1314889236.15592933,46.54708481,8.71082211,1978.08630371,6,7,1
1314889236.20722365,46.54708481,8.71082211,1978.07678223,6,7,1
1314889236.25538635,46.54708481,8.71082211,1978.06713867,6,7,1
1314889236.30781388,46.54708481,8.71082211,1978.08862305,6,7,1
1314889236.35632825,46.54708481,8.71082211,1978.07910156,6,7,1
1314889236.40821314,46.54708481,8.71082211,1978.06945801,6,7,1
1314889236.45541477,46.54708481,8.71082211,1978.05981445,6,7,1
1314889236.50721478,46.54708481,8.71082211,1978.05017090,6,7,1
1314889236.55633259,46.54708481,8.71082211,1978.06665039,6,7,1
1314889236.60790873,46.54708481,8.71082211,1978.05700684,6,7,1
1314889236.65539932,46.54708481,8.71082211,1978.04736328,6,7,1
1314889236.70770717,46.54708481,8.71082211,1978.03771973,6,7,1
1314889236.75633311,46.54708481,8.71082211,1978.02795410,6,7,1
1314889236.80824375,46.54708481,8.71082211,1978.04943848,6,7,1
1314889236.85633206,46.54708481,8.71082211,1978.03979492,6,7,1
1314889236.90819621,46.54708481,8.71082211,1978.03002930,6,7,1
1314889236.95564699,46.54708481,8.71082211,1978.02038574,6,7,1
1314889237.00794077,46.54708481,8.71082211,1978.01062012,6,7,1
1314889237.05632544,46.54708481,8.71082306,1978.03576660,6,7,1
1314889237.10781860,46.54708481,8.71082306,1978.02612305,6,7,1
1314889237.15632725,46.54708481,8.71082306,1978.01635742,6,7,1
1314889237.20822048,46.54708481,8.71082306,1978.00671387,6,7,1
1314889237.25635457,46.54708481,8.71082306,1977.99694824,6,7,1
1314889237.30792260,46.54708481,8.71082306,1978.01440430,6,7,1
1314889237.35934424,46.54708481,8.71082306,1978.00708008,6,7,1
1314889237.40718508,46.54708481,8.71082306,1977.99731445,6,7,1
1314889237.45550323,46.54708481,8.71082306,1977.98754883,6,7,1
1314889237.50724626,46.54708481,8.71082306,1977.97778320,6,7,1
1314889237.55549645,46.54708481,8.71082306,1977.99682617,6,7,1
1314889237.60805416,46.54708481,8.71082306,1977.98706055,6,7,1
1314889237.65532708,46.54708481,8.71082306,1977.97729492,6,7,1
1314889237.70824027,46.54708481,8.71082306,1977.96740723,6,7,1
1314889237.75530744,46.54708481,8.71082306,1977.95751953,6,7,1
1314889237.80716777,46.54708481,8.71082401,1977.98547363,6,7,1
1314889237.85530567,46.54708481,8.71082401,1977.97570801,6,7,1
1314889237.90825725,46.54708481,8.71082401,1977.96606445,6,7,1
1314889237.95531344,46.54708481,8.71082306,1977.95629883,6,7,1
1314889238.00792432,46.54708481,8.71082306,1977.94641113,6,7,1
1314889238.05530930,46.54708481,8.71082401,1977.95629883,6,7,1
1314889238.10792065,46.54708481,8.71082401,1977.94641113,6,7,1
1314889238.15623045,46.54708481,8.71082401,1977.93664551,6,7,1
1314889238.20720077,46.54708481,8.71082401,1977.92663574,6,7,1
1314889238.25625157,46.54708481,8.71082306,1977.91674805,6,7,1
1314889238.30821991,46.54708481,8.71082401,1977.93688965,6,7,1
1314889238.35613227,46.54708481,8.71082401,1977.92700195,6,7,1
1314889238.40821910,46.54708481,8.71082401,1977.91711426,6,7,1
1314889238.45521784,46.54708481,8.71082401,1977.90710449,6,7,1
1314889238.50822878,46.54708481,8.71082401,1977.89709473,6,7,1
1314889238.55608511,46.54708481,8.71082401,1977.91552734,6,7,1
1314889238.60804653,46.54708481,8.71082401,1977.90563965,6,7,1
1314889238.65622377,46.54708481,8.71082401,1977.89562988,6,7,1
1314889238.70823145,46.54708481,8.71082401,1977.88562012,6,7,1
1314889238.75704813,46.54708481,8.71082401,1977.87561035,6,7,1
1314889238.80819845,46.54708481,8.71082401,1977.88537598,6,7,1
1314889238.85623240,46.54708481,8.71082401,1977.87524414,6,7,1
1314889238.90784359,46.54708481,8.71082401,1977.86523438,6,7,1
1314889238.95579576,46.54708481,8.71082401,1977.85522461,6,7,1
1314889239.00790715,46.54708481,8.71082401,1977.84509277,6,7,1
1314889239.05521321,46.54708481,8.71082497,1977.85900879,6,7,1
1314889239.10774446,46.54708481,8.71082401,1977.84899902,6,7,1
1314889239.15639424,46.54708481,8.71082401,1977.83886719,6,7,1
1314889239.20728421,46.54708481,8.71082401,1977.82873535,6,7,1
1314889239.25593448,46.54708481,8.71082401,1977.81848145,6,7,1
1314889239.30827165,46.54708481,8.71082497,1977.83166504,6,7,1
1314889239.35529900,46.54708481,8.71082497,1977.82153320,6,7,1
1314889239.40823793,46.54708481,8.71082497,1977.81140137,6,7,1
1314889239.45567274,46.54708481,8.71082497,1977.80114746,6,7,1
1314889239.50823855,46.54708481,8.71082497,1977.79089355,6,7,1
1314889239.55579734,46.54708481,8.71082497,1977.80651855,6,7,1
1314889239.60782313,46.54708481,8.71082497,1977.79638672,6,7,1
1314889239.65579295,46.54708481,8.71082497,1977.78613281,6,7,1
1314889239.70826221,46.54708481,8.71082497,1977.77575684,6,7,1
1314889239.75633216,46.54708481,8.71082497,1977.76550293,6,7,1
1314889239.80824351,46.54708481,8.71082592,1977.78271484,6,7,1
1314889239.85566521,46.54708481,8.71082592,1977.77246094,6,7,1
1314889239.90822983,46.54708481,8.71082592,1977.76220703,6,7,1
1314889239.95565295,46.54708481,8.71082497,1977.75195312,6,7,1
1314889240.00793982,46.54708481,8.71082497,1977.74157715,6,7,1
1314889240.05632782,46.54708481,8.71082592,1977.75744629,6,7,1
1314889240.10775685,46.54708481,8.71082592,1977.74707031,6,7,1
1314889240.15922880,46.54708481,8.71082592,1977.73681641,6,7,1
1314889240.20801616,46.54708481,8.71082592,1977.72631836,6,7,1
1314889240.25552511,46.54708481,8.71082592,1977.71594238,6,7,1
1314889240.30800819,46.54708481,8.71082592,1977.73059082,6,7,1
